Time,TemperatureF,DewpointF,PressureIn,WindDirection,WindDirectionDegrees,WindSpeedMPH,WindSpeedGustMPH,Humidity,HourlyPrecipIn,Conditions,Clouds,dailyrainin,SoftwareType,DateUTC
2013-08-28 12:52:00,92.0,71.0,30.10,North,0,0.0,0.0,51,0.00,,,0.02,,2013-08-28 17:52:00,
2013-08-28 13:02:00,92.0,71.0,30.10,North,0,0.0,0.0,51,0.00,,,0.02,,2013-08-28 18:02:00,
2013-08-28 14:22:00,94.0,69.0,30.06,North,0,0.0,0.0,45,0.00,,,0.02,,2013-08-28 19:22:00,
2013-08-28 14:32:00,94.0,69.0,30.06,North,0,0.0,0.0,45,0.00,,,0.02,,2013-08-28 19:32:00,
2013-08-28 16:57:00,96.0,66.0,30.02,North,0,0.0,0.0,38,0.00,,,0.00,,2013-08-28 21:57:00,
2013-08-28 17:15:00,95.0,67.0,30.01,North,0,0.0,0.0,40,0.00,,,0.00,,2013-08-28 22:15:00,
2013-08-28 17:25:00,95.0,66.0,30.00,North,0,0.0,0.0,39,0.00,,,0.00,,2013-08-28 22:25:00,
2013-08-28 17:34:00,95.0,66.0,30.00,North,0,0.0,0.0,39,0.00,,,0.00,,2013-08-28 22:34:00,
2013-08-28 17:54:00,94.0,66.0,30.00,North,0,0.0,0.0,40,0.00,,,0.00,,2013-08-28 22:54:00,
2013-08-28 18:03:00,94.0,66.0,30.00,North,0,0.0,0.0,40,0.00,,,0.00,,2013-08-28 23:03:00,
2013-08-28 18:22:00,93.0,67.0,30.00,North,0,0.0,0.0,43,0.00,,,0.00,,2013-08-28 23:22:00,
2013-08-28 18:42:00,94.0,67.0,30.00,North,0,0.0,0.0,42,0.00,,,0.00,,2013-08-28 23:42:00,
2013-08-28 18:53:00,94.0,67.0,30.00,North,0,0.0,0.0,42,0.00,,,0.00,,2013-08-28 23:53:00,
2013-08-28 19:11:00,91.0,66.0,29.99,North,0,0.0,0.0,44,0.00,,,0.00,,2013-08-29 00:11:00,
2013-08-28 20:12:00,87.0,65.0,29.99,North,0,0.0,0.0,49,0.00,,,0.00,,2013-08-29 01:12:00,
2013-08-28 20:22:00,87.0,67.0,29.99,North,0,0.0,0.0,51,0.00,,,0.00,,2013-08-29 01:22:00,
2013-08-28 20:42:00,85.0,66.0,29.99,North,0,0.0,0.0,53,0.00,,,0.00,,2013-08-29 01:42:00,
2013-08-28 20:52:00,83.0,66.0,30.00,North,0,0.0,0.0,56,0.00,,,0.00,,2013-08-29 01:52:00,
2013-08-28 21:11:00,83.0,66.0,30.00,North,0,0.0,0.0,57,0.00,,,0.00,,2013-08-29 02:11:00,
2013-08-28 21:22:00,82.0,66.0,30.00,North,0,0.0,0.0,58,0.00,,,0.00,,2013-08-29 02:22:00,
2013-08-28 22:11:00,80.0,65.0,30.01,North,0,0.0,0.0,61,0.00,,,0.00,,2013-08-29 03:11:00,
2013-08-28 22:23:00,80.0,65.0,30.01,North,0,0.0,0.0,61,0.00,,,0.00,,2013-08-29 03:23:00,
2013-08-28 22:57:00,79.0,65.0,30.01,North,0,0.0,0.0,63,0.00,,,0.00,,2013-08-29 03:57:00,
2013-08-28 23:18:00,78.0,65.0,30.02,North,0,0.0,0.0,64,0.00,,,0.00,,2013-08-29 04:18:00,
2013-08-28 23:28:00,78.0,65.0,30.02,North,0,0.0,0.0,65,0.00,,,0.00,,2013-08-29 04:28:00,
2013-08-28 23:37:00,78.0,65.0,30.02,North,0,0.0,0.0,65,0.00,,,0.00,,2013-08-29 04:37:00,
2013-08-28 23:54:00,79.0,67.0,30.03,North,0,0.0,0.0,66,0.00,,,0.00,,2013-08-29 04:54:00,